Time,TemperatureF,DewpointF,PressureIn,WindDirection,WindDirectionDegrees,WindSpeedMPH,WindSpeedGustMPH,Humidity,HourlyPrecipIn,Conditions,Clouds,dailyrainin,SoftwareType,DateUTC
2013-06-28 00:00:00,63.7,62.2,29.32,NE,45,0.0,0.0,95,0.00,,---,0.00,VWS V14.01,2013-06-28 04:00:00,
2013-06-28 00:01:00,63.7,62.2,29.32,NE,45,0.0,0.0,95,0.00,,---,0.00,VWS V14.01,2013-06-28 04:01:00,
2013-06-28 00:02:00,63.7,62.2,29.32,NE,45,0.0,0.0,95,0.00,,---,0.00,VWS V14.01,2013-06-28 04:02:00,
2013-06-28 00:04:00,63.5,62.0,29.32,NE,45,0.0,0.0,95,0.00,,---,0.00,VWS V14.01,2013-06-28 04:04:00,
2013-06-28 00:05:00,63.5,62.0,29.32,NE,45,0.0,0.0,95,0.00,,---,0.00,VWS V14.01,2013-06-28 04:05:00,
2013-06-28 00:06:00,63.5,62.0,29.32,NE,45,0.0,0.0,95,0.00,,---,0.00,VWS V14.01,2013-06-28 04:06:00,
2013-06-28 00:11:00,63.5,62.0,29.29,East,90,0.0,0.0,95,0.00,,---,0.00,VWS V14.01,2013-06-28 04:11:00,
2013-06-28 00:17:00,63.5,62.0,29.29,ENE,68,0.0,0.0,95,0.00,,---,0.00,VWS V14.01,2013-06-28 04:17:00,
2013-06-28 00:23:00,63.5,62.0,29.29,SSE,158,0.0,0.9,95,0.00,,---,0.00,VWS V14.01,2013-06-28 04:23:00,
2013-06-28 00:28:00,63.3,61.9,29.29,East,90,3.4,3.4,95,0.00,,---,0.00,VWS V14.01,2013-06-28 04:28:00,
2013-06-28 00:34:00,63.1,61.7,29.29,ESE,112,2.0,2.5,95,0.00,,---,0.00,VWS V14.01,2013-06-28 04:34:00,
2013-06-28 00:39:00,63.0,61.5,29.29,NE,45,0.0,0.0,95,0.00,,---,0.00,VWS V14.01,2013-06-28 04:39:00,
2013-06-28 00:45:00,63.0,61.5,29.29,NE,45,0.0,0.0,95,0.00,,---,0.00,VWS V14.01,2013-06-28 04:45:00,
2013-06-28 00:50:00,62.8,61.0,29.29,ENE,68,0.0,0.0,94,0.00,,---,0.00,VWS V14.01,2013-06-28 04:50:00,
2013-06-28 00:56:00,62.8,61.3,29.29,NNE,22,0.0,0.0,95,0.00,,---,0.00,VWS V14.01,2013-06-28 04:56:00,
2013-06-28 01:02:00,62.6,61.2,29.29,NNE,22,0.0,0.0,95,0.00,,---,0.00,VWS V14.01,2013-06-28 05:02:00,
2013-06-28 01:07:00,62.6,61.2,29.29,NNE,22,0.0,0.0,95,0.04,,---,0.04,VWS V14.01,2013-06-28 05:07:00,
2013-06-28 01:13:00,62.4,61.0,29.29,NNE,22,2.5,2.5,95,0.04,,---,0.04,VWS V14.01,2013-06-28 05:13:00,
2013-06-28 01:18:00,62.4,61.0,29.29,NNE,22,0.0,0.0,95,0.04,,---,0.04,VWS V14.01,2013-06-28 05:18:00,
2013-06-28 01:23:00,62.4,61.0,29.29,NNE,22,0.0,0.0,95,0.04,,---,0.04,VWS V14.01,2013-06-28 05:23:00,
2013-06-28 01:29:00,62.4,61.3,29.29,NNE,22,0.0,0.0,96,0.04,,---,0.04,VWS V14.01,2013-06-28 05:29:00,
2013-06-28 01:34:00,62.2,61.1,29.29,NNE,22,0.0,0.0,96,0.04,,---,0.04,VWS V14.01,2013-06-28 05:34:00,
2013-06-28 01:40:00,62.2,61.1,29.29,NNE,22,0.0,0.0,96,0.04,,---,0.04,VWS V14.01,2013-06-28 05:40:00,
2013-06-28 01:45:00,62.2,61.1,29.29,NNE,22,0.0,0.0,96,0.04,,---,0.04,VWS V14.01,2013-06-28 05:45:00,
2013-06-28 01:51:00,62.2,61.1,29.29,NNE,22,0.0,0.0,96,0.04,,---,0.04,VWS V14.01,2013-06-28 05:51:00,
2013-06-28 01:56:00,62.2,61.1,29.29,NNE,22,0.0,0.0,96,0.04,,---,0.04,VWS V14.01,2013-06-28 05:56:00,
2013-06-28 02:01:00,62.2,61.1,29.29,NNE,22,0.0,0.0,96,0.04,,---,0.04,VWS V14.01,2013-06-28 06:01:00,
2013-06-28 02:07:00,62.1,60.9,29.29,NNE,22,0.0,0.0,96,0.00,,---,0.04,VWS V14.01,2013-06-28 06:07:00,
2013-06-28 02:13:00,62.1,60.9,29.26,NNE,22,0.0,0.0,96,0.00,,---,0.04,VWS V14.01,2013-06-28 06:13:00,
2013-06-28 02:19:00,62.1,60.9,29.26,NNE,22,0.0,0.0,96,0.00,,---,0.04,VWS V14.01,2013-06-28 06:19:00,
2013-06-28 02:24:00,62.1,60.9,29.26,NNE,22,0.0,0.0,96,0.00,,---,0.04,VWS V14.01,2013-06-28 06:24:00,
2013-06-28 02:30:00,62.1,60.9,29.26,NNE,22,0.0,0.0,96,0.00,,---,0.04,VWS V14.01,2013-06-28 06:30:00,
2013-06-28 02:35:00,61.9,60.7,29.26,NNE,22,0.0,0.0,96,0.00,,---,0.04,VWS V14.01,2013-06-28 06:35:00,
2013-06-28 02:41:00,61.9,60.7,29.26,NNE,22,0.0,0.0,96,0.00,,---,0.04,VWS V14.01,2013-06-28 06:41:00,
2013-06-28 02:47:00,61.7,60.5,29.26,NNE,22,0.0,0.0,96,0.00,,---,0.04,VWS V14.01,2013-06-28 06:47:00,
2013-06-28 02:53:00,61.7,60.5,29.26,NNE,22,0.0,0.0,96,0.00,,---,0.04,VWS V14.01,2013-06-28 06:53:00,
2013-06-28 02:58:00,61.7,60.5,29.26,NNE,22,0.0,0.0,96,0.00,,---,0.04,VWS V14.01,2013-06-28 06:58:00,
2013-06-28 03:04:00,61.7,60.5,29.26,NE,45,0.0,0.0,96,0.00,,---,0.04,VWS V14.01,2013-06-28 07:04:00,
2013-06-28 03:09:00,61.5,60.4,29.26,NE,45,0.0,0.0,96,0.00,,---,0.04,VWS V14.01,2013-06-28 07:09:00,
2013-06-28 03:15:00,61.5,60.4,29.26,NE,45,0.0,0.0,96,0.00,,---,0.04,VWS V14.01,2013-06-28 07:15:00,
2013-06-28 03:21:00,61.3,60.2,29.26,NE,45,0.0,0.0,96,0.00,,---,0.04,VWS V14.01,2013-06-28 07:21:00,
2013-06-28 03:26:00,61.3,60.2,29.26,NE,45,0.0,0.0,96,0.00,,---,0.04,VWS V14.01,2013-06-28 07:26:00,
2013-06-28 03:31:00,61.2,60.0,29.26,North,0,0.0,0.0,96,0.00,,---,0.04,VWS V14.01,2013-06-28 07:31:00,
2013-06-28 03:36:00,61.0,59.8,29.26,North,0,0.0,0.0,96,0.00,,---,0.04,VWS V14.01,2013-06-28 07:36:00,
2013-06-28 03:42:00,61.0,59.8,29.26,NNW,338,0.0,0.0,96,0.00,,---,0.04,VWS V14.01,2013-06-28 07:42:00,
2013-06-28 03:47:00,60.8,59.7,29.26,NNW,338,0.0,0.0,96,0.04,,---,0.08,VWS V14.01,2013-06-28 07:47:00,
2013-06-28 03:53:00,60.6,59.5,29.26,NNW,338,0.0,0.0,96,0.04,,---,0.08,VWS V14.01,2013-06-28 07:53:00,
2013-06-28 03:58:00,60.6,59.5,29.26,NNW,338,0.0,0.0,96,0.04,,---,0.08,VWS V14.01,2013-06-28 07:58:00,
2013-06-28 04:04:00,60.4,59.3,29.26,NNW,338,0.0,0.0,96,0.04,,---,0.08,VWS V14.01,2013-06-28 08:04:00,
2013-06-28 04:09:00,60.4,59.3,29.23,NNW,338,0.0,0.0,96,0.04,,---,0.08,VWS V14.01,2013-06-28 08:09:00,
2013-06-28 04:15:00,60.3,59.1,29.23,NNW,338,0.0,0.0,96,0.04,,---,0.08,VWS V14.01,2013-06-28 08:15:00,
2013-06-28 04:20:00,60.3,59.1,29.23,NNW,338,0.0,0.0,96,0.04,,---,0.08,VWS V14.01,2013-06-28 08:20:00,
2013-06-28 04:25:00,60.1,58.9,29.23,NNW,338,0.0,0.0,96,0.04,,---,0.08,VWS V14.01,2013-06-28 08:25:00,
2013-06-28 04:30:00,60.1,58.9,29.23,NNW,338,0.0,0.0,96,0.04,,---,0.08,VWS V14.01,2013-06-28 08:30:00,
2013-06-28 04:36:00,60.1,58.9,29.23,NNW,338,0.0,0.0,96,0.04,,---,0.08,VWS V14.01,2013-06-28 08:36:00,
2013-06-28 04:41:00,59.9,59.0,29.23,NNW,338,0.0,0.0,97,0.04,,---,0.08,VWS V14.01,2013-06-28 08:41:00,
2013-06-28 04:46:00,59.9,59.0,29.23,NNW,338,0.0,0.0,97,0.00,,---,0.08,VWS V14.01,2013-06-28 08:46:00,
2013-06-28 04:51:00,59.9,59.0,29.23,NNW,338,0.0,0.0,97,0.04,,---,0.12,VWS V14.01,2013-06-28 08:51:00,
2013-06-28 04:56:00,59.7,58.9,29.23,NNW,338,0.0,0.0,97,0.04,,---,0.12,VWS V14.01,2013-06-28 08:56:00,
2013-06-28 05:01:00,59.7,58.9,29.23,East,90,0.0,0.0,97,0.04,,---,0.12,VWS V14.01,2013-06-28 09:01:00,
2013-06-28 05:07:00,59.5,58.4,29.23,NE,45,0.0,0.0,96,0.04,,---,0.12,VWS V14.01,2013-06-28 09:07:00,
2013-06-28 05:12:00,59.5,58.4,29.23,NE,45,0.0,0.0,96,0.04,,---,0.12,VWS V14.01,2013-06-28 09:12:00,
2013-06-28 05:18:00,59.4,58.2,29.23,WSW,248,0.0,0.0,96,0.04,,---,0.12,VWS V14.01,2013-06-28 09:18:00,
2013-06-28 05:25:00,59.4,58.2,29.20,NNW,338,0.0,0.0,96,0.04,,---,0.12,VWS V14.01,2013-06-28 09:25:00,
2013-06-28 05:30:00,59.2,58.0,29.20,NNW,338,0.0,0.0,96,0.09,,---,0.17,VWS V14.01,2013-06-28 09:30:00,
2013-06-28 05:36:00,59.2,58.0,29.20,West,270,0.0,0.0,96,0.09,,---,0.17,VWS V14.01,2013-06-28 09:36:00,
2013-06-28 05:41:00,59.2,58.0,29.20,West,270,0.0,0.0,96,0.12,,---,0.20,VWS V14.01,2013-06-28 09:41:00,
2013-06-28 05:46:00,59.0,57.9,29.20,SSE,158,0.0,0.0,96,0.12,,---,0.20,VWS V14.01,2013-06-28 09:46:00,
2013-06-28 05:51:00,59.0,57.9,29.20,SW,225,0.0,0.0,96,0.13,,---,0.25,VWS V14.01,2013-06-28 09:51:00,
2013-06-28 05:56:00,58.8,58.0,29.20,NNW,338,0.0,0.0,97,0.17,,---,0.29,VWS V14.01,2013-06-28 09:56:00,
2013-06-28 06:01:00,58.8,58.0,29.20,NNW,338,0.0,0.0,97,0.21,,---,0.33,VWS V14.01,2013-06-28 10:01:00,
2013-06-28 06:07:00,58.8,58.0,29.20,WNW,292,0.0,0.0,97,0.25,,---,0.37,VWS V14.01,2013-06-28 10:07:00,
2013-06-28 06:13:00,58.8,58.0,29.20,WNW,292,0.0,0.0,97,0.29,,---,0.41,VWS V14.01,2013-06-28 10:13:00,
2013-06-28 06:18:00,58.8,58.0,29.20,North,0,0.0,0.0,97,0.33,,---,0.45,VWS V14.01,2013-06-28 10:18:00,
2013-06-28 06:23:00,58.8,58.3,29.20,SW,225,0.0,0.0,98,0.33,,---,0.45,VWS V14.01,2013-06-28 10:23:00,
2013-06-28 06:28:00,58.8,58.3,29.20,WNW,292,0.0,0.0,98,0.38,,---,0.50,VWS V14.01,2013-06-28 10:28:00,
2013-06-28 06:34:00,58.8,58.3,29.20,SW,225,0.0,0.0,98,0.37,,---,0.54,VWS V14.01,2013-06-28 10:34:00,
2013-06-28 06:39:00,58.8,58.3,29.20,WSW,248,0.0,0.0,98,0.34,,---,0.54,VWS V14.01,2013-06-28 10:39:00,
2013-06-28 06:44:00,58.8,58.3,29.20,North,0,0.0,0.0,98,0.42,,---,0.62,VWS V14.01,2013-06-28 10:44:00,
2013-06-28 06:50:00,58.8,58.3,29.20,WSW,248,0.0,0.0,98,0.41,,---,0.66,VWS V14.01,2013-06-28 10:50:00,
2013-06-28 06:56:00,58.8,58.3,29.20,West,270,0.0,0.0,98,0.37,,---,0.66,VWS V14.01,2013-06-28 10:56:00,
2013-06-28 07:02:00,58.8,58.3,29.20,WNW,292,0.0,0.0,98,0.37,,---,0.70,VWS V14.01,2013-06-28 11:02:00,
2013-06-28 07:08:00,58.8,58.3,29.20,WSW,248,0.0,0.0,98,0.33,,---,0.70,VWS V14.01,2013-06-28 11:08:00,
2013-06-28 07:13:00,58.8,58.3,29.20,East,90,0.0,0.0,98,0.29,,---,0.70,VWS V14.01,2013-06-28 11:13:00,
2013-06-28 07:18:00,58.8,58.3,29.20,WNW,292,0.0,0.0,98,0.29,,---,0.70,VWS V14.01,2013-06-28 11:18:00,
2013-06-28 07:24:00,58.8,58.3,29.17,WSW,248,0.0,0.0,98,0.25,,---,0.70,VWS V14.01,2013-06-28 11:24:00,
2013-06-28 07:29:00,58.8,58.3,29.17,WSW,248,0.0,0.0,98,0.20,,---,0.70,VWS V14.01,2013-06-28 11:29:00,
2013-06-28 07:34:00,59.0,58.4,29.17,WSW,248,0.0,0.0,98,0.16,,---,0.70,VWS V14.01,2013-06-28 11:34:00,
2013-06-28 07:39:00,59.2,58.6,29.20,WSW,248,0.0,0.0,98,0.16,,---,0.70,VWS V14.01,2013-06-28 11:39:00,
2013-06-28 07:44:00,59.2,58.6,29.20,WSW,248,0.0,0.0,98,0.08,,---,0.70,VWS V14.01,2013-06-28 11:44:00,
2013-06-28 07:49:00,59.2,58.6,29.20,WSW,248,0.0,0.0,98,0.08,,---,0.74,VWS V14.01,2013-06-28 11:49:00,
2013-06-28 07:54:00,59.2,58.6,29.20,WSW,248,0.0,0.0,98,0.08,,---,0.74,VWS V14.01,2013-06-28 11:54:00,
2013-06-28 07:59:00,59.4,58.8,29.20,WSW,248,0.0,0.0,98,0.08,,---,0.74,VWS V14.01,2013-06-28 11:59:00,
2013-06-28 08:04:00,59.4,58.8,29.20,WSW,248,0.0,0.0,98,0.04,,---,0.74,VWS V14.01,2013-06-28 12:04:00,
2013-06-28 08:09:00,59.4,58.8,29.17,WSW,248,0.0,0.0,98,0.04,,---,0.74,VWS V14.01,2013-06-28 12:09:00,
2013-06-28 08:15:00,59.4,58.8,29.17,North,0,0.0,0.0,98,0.04,,---,0.74,VWS V14.01,2013-06-28 12:15:00,
2013-06-28 08:20:00,59.4,58.8,29.17,NNE,22,0.0,0.0,98,0.09,,---,0.79,VWS V14.01,2013-06-28 12:20:00,
2013-06-28 08:25:00,59.4,58.8,29.17,NNE,22,0.0,0.0,98,0.09,,---,0.79,VWS V14.01,2013-06-28 12:25:00,
2013-06-28 08:31:00,59.4,58.8,29.17,NNE,22,0.0,0.0,98,0.09,,---,0.79,VWS V14.01,2013-06-28 12:31:00,
2013-06-28 08:37:00,59.5,59.0,29.17,NNE,22,0.0,0.0,98,0.09,,---,0.79,VWS V14.01,2013-06-28 12:37:00,
2013-06-28 08:42:00,59.5,59.0,29.17,NNE,22,0.0,0.0,98,0.09,,---,0.79,VWS V14.01,2013-06-28 12:42:00,
2013-06-28 08:48:00,59.7,59.2,29.17,NNE,22,0.0,0.0,98,0.05,,---,0.79,VWS V14.01,2013-06-28 12:48:00,
2013-06-28 08:54:00,59.7,59.2,29.17,NNE,22,0.0,0.0,98,0.05,,---,0.79,VWS V14.01,2013-06-28 12:54:00,
2013-06-28 08:59:00,59.7,59.2,29.17,NNE,22,0.0,0.0,98,0.05,,---,0.79,VWS V14.01,2013-06-28 12:59:00,
2013-06-28 09:05:00,59.7,59.2,29.17,ESE,112,0.0,0.0,98,0.09,,---,0.83,VWS V14.01,2013-06-28 13:05:00,
2013-06-28 09:11:00,59.5,59.0,29.14,SW,225,0.0,0.0,98,0.09,,---,0.83,VWS V14.01,2013-06-28 13:11:00,
2013-06-28 09:16:00,59.5,59.0,29.14,East,90,0.0,0.0,98,0.09,,---,0.83,VWS V14.01,2013-06-28 13:16:00,
2013-06-28 09:21:00,59.5,59.0,29.14,SW,225,0.0,0.0,98,0.04,,---,0.83,VWS V14.01,2013-06-28 13:21:00,
2013-06-28 09:27:00,59.5,59.0,29.14,SSW,202,0.0,0.0,98,0.04,,---,0.83,VWS V14.01,2013-06-28 13:27:00,
2013-06-28 09:32:00,59.5,59.0,29.14,ENE,68,0.0,0.0,98,0.04,,---,0.83,VWS V14.01,2013-06-28 13:32:00,
2013-06-28 09:38:00,59.5,59.0,29.14,ENE,68,0.0,0.0,98,0.04,,---,0.83,VWS V14.01,2013-06-28 13:38:00,
2013-06-28 09:44:00,59.5,59.0,29.14,West,270,0.0,0.0,98,0.08,,---,0.87,VWS V14.01,2013-06-28 13:44:00,
2013-06-28 09:49:00,59.5,59.0,29.14,NW,315,0.0,0.0,98,0.08,,---,0.87,VWS V14.01,2013-06-28 13:49:00,
2013-06-28 09:55:00,59.7,59.2,29.14,NE,45,0.0,0.0,98,0.08,,---,0.87,VWS V14.01,2013-06-28 13:55:00,
2013-06-28 10:00:00,59.7,59.2,29.14,SSW,202,0.0,0.0,98,0.08,,---,0.87,VWS V14.01,2013-06-28 14:00:00,
2013-06-28 10:05:00,59.5,59.0,29.14,NNW,338,0.0,0.0,98,0.04,,---,0.87,VWS V14.01,2013-06-28 14:05:00,
2013-06-28 10:10:00,59.7,59.2,29.14,NNE,22,0.0,0.0,98,0.04,,---,0.87,VWS V14.01,2013-06-28 14:10:00,
2013-06-28 10:15:00,59.7,59.2,29.14,WSW,248,0.0,0.0,98,0.04,,---,0.87,VWS V14.01,2013-06-28 14:15:00,
2013-06-28 10:20:00,59.5,59.0,29.14,North,0,0.0,0.0,98,0.04,,---,0.87,VWS V14.01,2013-06-28 14:20:00,
2013-06-28 10:26:00,59.5,59.0,29.12,North,0,0.0,0.0,98,0.04,,---,0.87,VWS V14.01,2013-06-28 14:26:00,
2013-06-28 10:31:00,59.5,59.0,29.12,North,0,0.0,0.0,98,0.04,,---,0.87,VWS V14.01,2013-06-28 14:31:00,
2013-06-28 10:36:00,59.5,59.0,29.12,NNW,338,0.0,0.0,98,0.04,,---,0.87,VWS V14.01,2013-06-28 14:36:00,
2013-06-28 10:41:00,59.5,59.0,29.12,NNE,22,0.0,0.0,98,0.04,,---,0.87,VWS V14.01,2013-06-28 14:41:00,
2013-06-28 10:47:00,59.5,59.0,29.12,West,270,0.0,0.0,98,0.00,,---,0.87,VWS V14.01,2013-06-28 14:47:00,
2013-06-28 10:52:00,59.5,59.0,29.12,NE,45,0.0,0.0,98,0.00,,---,0.87,VWS V14.01,2013-06-28 14:52:00,
2013-06-28 10:57:00,59.5,59.0,29.12,NE,45,0.0,0.0,98,0.00,,---,0.87,VWS V14.01,2013-06-28 14:57:00,
2013-06-28 11:02:00,59.4,58.8,29.12,North,0,0.0,0.0,98,0.00,,---,0.87,VWS V14.01,2013-06-28 15:02:00,
2013-06-28 11:08:00,59.5,59.0,29.12,ENE,68,0.0,0.0,98,0.00,,---,0.87,VWS V14.01,2013-06-28 15:08:00,
2013-06-28 11:13:00,59.5,59.0,29.12,WNW,292,0.0,0.0,98,0.00,,---,0.87,VWS V14.01,2013-06-28 15:13:00,
2013-06-28 11:18:00,59.7,59.2,29.12,WNW,292,0.0,0.0,98,0.04,,---,0.91,VWS V14.01,2013-06-28 15:18:00,
2013-06-28 11:23:00,59.7,59.2,29.12,SSE,158,0.0,0.0,98,0.04,,---,0.91,VWS V14.01,2013-06-28 15:23:00,
2013-06-28 11:29:00,60.1,59.5,29.12,NNW,338,0.0,0.0,98,0.08,,---,0.95,VWS V14.01,2013-06-28 15:29:00,
2013-06-28 11:34:00,60.1,59.5,29.12,NNE,22,0.0,0.0,98,0.08,,---,0.95,VWS V14.01,2013-06-28 15:34:00,
2013-06-28 11:39:00,60.3,59.7,29.12,SW,225,0.0,0.0,98,0.08,,---,0.95,VWS V14.01,2013-06-28 15:39:00,
2013-06-28 11:44:00,60.4,59.9,29.12,WNW,292,0.0,0.0,98,0.08,,---,0.95,VWS V14.01,2013-06-28 15:44:00,
2013-06-28 11:50:00,60.4,59.9,29.12,WNW,292,0.0,0.0,98,0.12,,---,0.99,VWS V14.01,2013-06-28 15:50:00,
2013-06-28 11:55:00,60.4,59.9,29.12,NE,45,0.0,0.0,98,0.12,,---,0.99,VWS V14.01,2013-06-28 15:55:00,
2013-06-28 12:00:00,60.6,60.1,29.12,NNW,338,0.0,0.0,98,0.17,,---,1.04,VWS V14.01,2013-06-28 16:00:00,
2013-06-28 12:05:00,61.0,60.4,29.12,NNW,338,0.0,0.0,98,0.17,,---,1.04,VWS V14.01,2013-06-28 16:05:00,
2013-06-28 12:11:00,61.3,60.8,29.12,NW,315,0.0,0.0,98,0.17,,---,1.04,VWS V14.01,2013-06-28 16:11:00,
2013-06-28 12:16:00,61.5,61.0,29.12,West,270,0.0,0.0,98,0.13,,---,1.04,VWS V14.01,2013-06-28 16:16:00,
2013-06-28 12:21:00,61.7,61.1,29.12,West,270,0.0,0.0,98,0.13,,---,1.04,VWS V14.01,2013-06-28 16:21:00,
2013-06-28 12:26:00,61.9,61.3,29.09,West,270,0.0,0.0,98,0.13,,---,1.04,VWS V14.01,2013-06-28 16:26:00,
2013-06-28 12:32:00,61.9,61.0,29.09,SW,225,0.0,0.0,97,0.09,,---,1.04,VWS V14.01,2013-06-28 16:32:00,
2013-06-28 12:37:00,62.1,61.2,29.09,East,90,0.0,0.0,97,0.09,,---,1.04,VWS V14.01,2013-06-28 16:37:00,
2013-06-28 12:43:00,62.1,61.2,29.09,NNE,22,0.0,0.0,97,0.09,,---,1.04,VWS V14.01,2013-06-28 16:43:00,
2013-06-28 12:49:00,62.1,60.9,29.09,NNE,22,0.0,0.0,96,0.05,,---,1.04,VWS V14.01,2013-06-28 16:49:00,
2013-06-28 12:54:00,62.2,60.8,29.09,WSW,248,0.0,0.0,95,0.05,,---,1.04,VWS V14.01,2013-06-28 16:54:00,
2013-06-28 13:00:00,62.6,61.5,29.09,NW,315,0.0,0.0,96,0.00,,---,1.04,VWS V14.01,2013-06-28 17:00:00,
2013-06-28 13:06:00,62.6,61.2,29.09,SE,135,0.0,0.0,95,0.00,,---,1.04,VWS V14.01,2013-06-28 17:06:00,
2013-06-28 13:11:00,62.6,61.2,29.09,WNW,292,0.0,0.0,95,0.00,,---,1.04,VWS V14.01,2013-06-28 17:11:00,
2013-06-28 13:17:00,62.8,61.3,29.09,SSE,158,0.0,0.0,95,0.00,,---,1.04,VWS V14.01,2013-06-28 17:17:00,
2013-06-28 13:22:00,63.0,61.5,29.09,NNE,22,0.0,0.0,95,0.00,,---,1.04,VWS V14.01,2013-06-28 17:22:00,
2013-06-28 13:28:00,63.0,61.5,29.09,West,270,0.0,0.0,95,0.00,,---,1.04,VWS V14.01,2013-06-28 17:28:00,
2013-06-28 13:33:00,63.0,61.5,29.09,North,0,0.0,0.0,95,0.00,,---,1.04,VWS V14.01,2013-06-28 17:33:00,
2013-06-28 13:38:00,62.8,61.0,29.06,West,270,0.0,0.0,94,0.00,,---,1.04,VWS V14.01,2013-06-28 17:38:00,
2013-06-28 13:43:00,62.8,61.0,29.06,WNW,292,0.0,0.0,94,0.00,,---,1.04,VWS V14.01,2013-06-28 17:43:00,
2013-06-28 13:49:00,62.8,61.0,29.06,NNW,338,0.0,0.0,94,0.00,,---,1.04,VWS V14.01,2013-06-28 17:49:00,
2013-06-28 13:54:00,63.0,61.5,29.06,WNW,292,0.0,0.0,95,0.00,,---,1.04,VWS V14.01,2013-06-28 17:54:00,
2013-06-28 13:59:00,62.6,60.8,29.09,SW,225,0.0,0.0,94,0.00,,---,1.04,VWS V14.01,2013-06-28 17:59:00,
2013-06-28 14:05:00,62.6,60.8,29.09,WSW,248,0.0,0.0,94,0.00,,---,1.04,VWS V14.01,2013-06-28 18:05:00,
2013-06-28 14:11:00,62.6,61.2,29.09,SW,225,0.0,0.0,95,0.00,,---,1.04,VWS V14.01,2013-06-28 18:11:00,
2013-06-28 14:17:00,62.6,60.8,29.09,NW,315,0.0,0.0,94,0.00,,---,1.04,VWS V14.01,2013-06-28 18:17:00,
2013-06-28 14:23:00,62.6,61.2,29.06,NE,45,0.0,0.0,95,0.00,,---,1.04,VWS V14.01,2013-06-28 18:23:00,
2013-06-28 14:29:00,62.6,61.2,29.06,SW,225,0.0,0.0,95,0.00,,---,1.04,VWS V14.01,2013-06-28 18:29:00,
2013-06-28 14:34:00,62.6,61.2,29.06,SW,225,0.0,0.0,95,0.03,,---,1.07,VWS V14.01,2013-06-28 18:34:00,
2013-06-28 14:40:00,62.8,61.3,29.09,SSW,202,0.0,0.0,95,0.03,,---,1.07,VWS V14.01,2013-06-28 18:40:00,
2013-06-28 14:45:00,62.8,61.3,29.09,West,270,0.0,0.0,95,0.03,,---,1.07,VWS V14.01,2013-06-28 18:45:00,
2013-06-28 14:51:00,62.8,61.3,29.09,ENE,68,0.0,0.0,95,0.03,,---,1.07,VWS V14.01,2013-06-28 18:51:00,
2013-06-28 14:56:00,62.8,61.3,29.06,SW,225,0.0,0.0,95,0.03,,---,1.07,VWS V14.01,2013-06-28 18:56:00,
2013-06-28 15:01:00,63.0,61.5,29.06,SW,225,0.0,0.0,95,0.03,,---,1.07,VWS V14.01,2013-06-28 19:01:00,
2013-06-28 15:06:00,63.0,61.5,29.06,WNW,292,0.0,0.0,95,0.03,,---,1.07,VWS V14.01,2013-06-28 19:06:00,
2013-06-28 15:11:00,63.0,61.5,29.09,WNW,292,0.0,0.0,95,0.03,,---,1.07,VWS V14.01,2013-06-28 19:11:00,
2013-06-28 15:17:00,63.0,61.5,29.09,WNW,292,0.0,0.0,95,0.03,,---,1.07,VWS V14.01,2013-06-28 19:17:00,
2013-06-28 15:22:00,63.0,61.5,29.09,WNW,292,0.0,0.0,95,0.03,,---,1.07,VWS V14.01,2013-06-28 19:22:00,
2013-06-28 15:28:00,63.0,61.5,29.06,WSW,248,0.0,0.0,95,0.03,,---,1.07,VWS V14.01,2013-06-28 19:28:00,
2013-06-28 15:35:00,63.0,61.5,29.06,West,270,0.0,0.0,95,0.03,,---,1.07,VWS V14.01,2013-06-28 19:35:00,
2013-06-28 15:41:00,63.5,62.3,29.06,WSW,248,0.0,0.0,96,0.00,,---,1.07,VWS V14.01,2013-06-28 19:41:00,
2013-06-28 15:46:00,63.9,62.7,29.06,WNW,292,0.0,0.0,96,0.00,,---,1.07,VWS V14.01,2013-06-28 19:46:00,
2013-06-28 15:51:00,64.0,62.9,29.06,WSW,248,0.0,0.0,96,0.00,,---,1.07,VWS V14.01,2013-06-28 19:51:00,
2013-06-28 15:56:00,64.4,62.9,29.06,East,90,0.0,0.0,95,0.00,,---,1.07,VWS V14.01,2013-06-28 19:56:00,
2013-06-28 16:01:00,64.6,63.1,29.06,WNW,292,0.0,0.0,95,0.00,,---,1.07,VWS V14.01,2013-06-28 20:01:00,
2013-06-28 16:06:00,64.8,62.7,29.06,NNE,22,0.0,0.0,93,0.00,,---,1.07,VWS V14.01,2013-06-28 20:06:00,
2013-06-28 16:11:00,64.9,62.9,29.06,WSW,248,0.0,0.0,93,0.00,,---,1.07,VWS V14.01,2013-06-28 20:11:00,
2013-06-28 16:16:00,64.9,62.6,29.06,NNW,338,0.0,0.0,92,0.00,,---,1.07,VWS V14.01,2013-06-28 20:16:00,
2013-06-28 16:21:00,64.9,62.6,29.06,SSW,202,0.0,0.0,92,0.00,,---,1.07,VWS V14.01,2013-06-28 20:21:00,
2013-06-28 16:26:00,64.9,62.6,29.06,South,180,0.0,0.0,92,0.00,,---,1.07,VWS V14.01,2013-06-28 20:26:00,
2013-06-28 16:31:00,65.1,62.7,29.06,South,180,0.0,0.0,92,0.00,,---,1.07,VWS V14.01,2013-06-28 20:31:00,
2013-06-28 16:37:00,65.3,62.9,29.06,NE,45,0.0,0.0,92,0.00,,---,1.07,VWS V14.01,2013-06-28 20:37:00,
2013-06-28 16:42:00,65.5,62.8,29.06,NE,45,0.0,0.0,91,0.00,,---,1.07,VWS V14.01,2013-06-28 20:42:00,
2013-06-28 16:48:00,65.7,63.0,29.06,NE,45,0.0,0.0,91,0.00,,---,1.07,VWS V14.01,2013-06-28 20:48:00,
2013-06-28 16:53:00,65.7,63.0,29.06,NE,45,0.0,0.0,91,0.00,,---,1.07,VWS V14.01,2013-06-28 20:53:00,
2013-06-28 16:58:00,65.7,63.0,29.06,NE,45,0.0,0.0,91,0.00,,---,1.07,VWS V14.01,2013-06-28 20:58:00,
2013-06-28 17:03:00,65.8,63.1,29.06,NE,45,0.0,0.0,91,0.00,,---,1.07,VWS V14.01,2013-06-28 21:03:00,
2013-06-28 17:08:00,65.8,63.1,29.06,NE,45,0.0,0.0,91,0.00,,---,1.07,VWS V14.01,2013-06-28 21:08:00,
2013-06-28 17:14:00,66.4,63.7,29.06,NE,45,0.0,0.0,91,0.00,,---,1.07,VWS V14.01,2013-06-28 21:14:00,
2013-06-28 17:19:00,66.4,63.4,29.06,WNW,292,0.0,0.0,90,0.00,,---,1.07,VWS V14.01,2013-06-28 21:19:00,
2013-06-28 17:24:00,66.4,62.7,29.03,West,270,0.0,0.0,88,0.00,,---,1.07,VWS V14.01,2013-06-28 21:24:00,
2013-06-28 17:29:00,66.4,63.4,29.03,North,0,0.0,0.0,90,0.00,,---,1.07,VWS V14.01,2013-06-28 21:29:00,
2013-06-28 17:34:00,66.2,63.2,29.03,North,0,0.0,0.0,90,0.00,,---,1.07,VWS V14.01,2013-06-28 21:34:00,
2013-06-28 17:39:00,66.0,63.0,29.03,North,0,0.0,0.0,90,0.00,,---,1.07,VWS V14.01,2013-06-28 21:39:00,
2013-06-28 17:44:00,65.8,62.8,29.03,North,0,0.0,0.0,90,0.00,,---,1.07,VWS V14.01,2013-06-28 21:44:00,
2013-06-28 17:49:00,65.7,62.7,29.03,North,0,0.0,0.0,90,0.00,,---,1.07,VWS V14.01,2013-06-28 21:49:00,
2013-06-28 17:54:00,65.5,62.8,29.03,North,0,0.0,0.0,91,0.00,,---,1.07,VWS V14.01,2013-06-28 21:54:00,
2013-06-28 17:59:00,65.5,62.8,29.03,North,0,0.0,0.0,91,0.00,,---,1.07,VWS V14.01,2013-06-28 21:59:00,
2013-06-28 18:06:00,65.3,62.9,29.03,North,0,0.0,0.0,92,0.00,,---,1.07,VWS V14.01,2013-06-28 22:06:00,
2013-06-28 18:11:00,65.1,62.7,29.06,North,0,0.0,0.0,92,0.00,,---,1.07,VWS V14.01,2013-06-28 22:11:00,
2013-06-28 18:17:00,65.1,62.7,29.06,North,0,0.0,0.0,92,0.00,,---,1.07,VWS V14.01,2013-06-28 22:17:00,
2013-06-28 18:22:00,64.8,62.4,29.06,North,0,0.0,0.0,92,0.05,,---,1.12,VWS V14.01,2013-06-28 22:22:00,
2013-06-28 18:27:00,64.6,62.2,29.06,North,0,0.0,0.0,92,0.05,,---,1.12,VWS V14.01,2013-06-28 22:27:00,
2013-06-28 18:32:00,64.6,62.2,29.06,North,0,0.0,0.0,92,0.05,,---,1.12,VWS V14.01,2013-06-28 22:32:00,
2013-06-28 18:37:00,64.4,62.0,29.06,North,0,0.0,0.0,92,0.05,,---,1.12,VWS V14.01,2013-06-28 22:37:00,
2013-06-28 18:43:00,64.2,62.2,29.06,North,0,0.0,0.0,93,0.05,,---,1.12,VWS V14.01,2013-06-28 22:43:00,
2013-06-28 18:48:00,64.2,62.2,29.06,North,0,0.0,0.0,93,0.05,,---,1.12,VWS V14.01,2013-06-28 22:48:00,
2013-06-28 18:54:00,64.0,62.3,29.06,North,0,0.0,0.0,94,0.05,,---,1.12,VWS V14.01,2013-06-28 22:54:00,
2013-06-28 19:00:00,63.9,62.1,29.06,North,0,0.0,0.0,94,0.05,,---,1.12,VWS V14.01,2013-06-28 23:00:00,
2013-06-28 19:05:00,63.9,62.1,29.06,North,0,0.0,0.0,94,0.05,,---,1.12,VWS V14.01,2013-06-28 23:05:00,
2013-06-28 19:11:00,63.9,62.1,29.06,WNW,292,0.0,0.0,94,0.05,,---,1.12,VWS V14.01,2013-06-28 23:11:00,
2013-06-28 19:16:00,63.9,62.4,29.06,WNW,292,0.0,0.0,95,0.05,,---,1.12,VWS V14.01,2013-06-28 23:16:00,
2013-06-28 19:22:00,63.9,62.4,29.06,WNW,292,0.0,0.0,95,0.00,,---,1.12,VWS V14.01,2013-06-28 23:22:00,
2013-06-28 19:27:00,63.9,62.4,29.06,WNW,292,0.0,0.0,95,0.00,,---,1.12,VWS V14.01,2013-06-28 23:27:00,
2013-06-28 19:32:00,63.9,62.4,29.06,WNW,292,0.0,0.0,95,0.00,,---,1.12,VWS V14.01,2013-06-28 23:32:00,
2013-06-28 19:38:00,63.9,62.7,29.06,WNW,292,0.0,0.0,96,0.00,,---,1.12,VWS V14.01,2013-06-28 23:38:00,
2013-06-28 19:43:00,63.9,62.7,29.06,WNW,292,0.0,0.0,96,0.00,,---,1.12,VWS V14.01,2013-06-28 23:43:00,
2013-06-28 19:49:00,63.7,62.5,29.06,WNW,292,0.0,0.0,96,0.00,,---,1.12,VWS V14.01,2013-06-28 23:49:00,
2013-06-28 19:54:00,63.7,62.5,29.06,WNW,292,0.0,0.0,96,0.00,,---,1.12,VWS V14.01,2013-06-28 23:54:00,
2013-06-28 20:00:00,63.5,62.3,29.06,WNW,292,0.0,0.0,96,0.00,,---,1.12,VWS V14.01,2013-06-29 00:00:00,
2013-06-28 20:05:00,63.5,62.3,29.06,WNW,292,0.0,0.0,96,0.00,,---,1.12,VWS V14.01,2013-06-29 00:05:00,
2013-06-28 20:10:00,63.5,62.3,29.06,WNW,292,0.0,0.0,96,0.00,,---,1.12,VWS V14.01,2013-06-29 00:10:00,
2013-06-28 20:16:00,63.5,62.3,29.06,WNW,292,0.0,0.0,96,0.00,,---,1.12,VWS V14.01,2013-06-29 00:16:00,
2013-06-28 20:21:00,63.5,62.3,29.06,WNW,292,0.0,0.0,96,0.00,,---,1.12,VWS V14.01,2013-06-29 00:21:00,
2013-06-28 20:27:00,63.5,62.3,29.06,WNW,292,0.0,0.0,96,0.00,,---,1.12,VWS V14.01,2013-06-29 00:27:00,
2013-06-28 20:32:00,63.5,62.6,29.06,WNW,292,0.0,0.0,97,0.00,,---,1.12,VWS V14.01,2013-06-29 00:32:00,
2013-06-28 20:37:00,63.3,62.5,29.06,WNW,292,0.0,0.0,97,0.00,,---,1.12,VWS V14.01,2013-06-29 00:37:00,
2013-06-28 20:43:00,63.3,62.5,29.06,WNW,292,0.0,0.0,97,0.00,,---,1.12,VWS V14.01,2013-06-29 00:43:00,
2013-06-28 20:49:00,63.3,62.5,29.06,WNW,292,0.0,0.0,97,0.00,,---,1.12,VWS V14.01,2013-06-29 00:49:00,
2013-06-28 20:54:00,63.3,62.5,29.06,WNW,292,0.0,0.0,97,0.00,,---,1.12,VWS V14.01,2013-06-29 00:54:00,
2013-06-28 20:59:00,63.3,62.5,29.06,WNW,292,0.0,0.0,97,0.00,,---,1.12,VWS V14.01,2013-06-29 00:59:00,
2013-06-28 21:04:00,63.1,62.3,29.06,WNW,292,0.0,0.0,97,0.04,,---,1.16,VWS V14.01,2013-06-29 01:04:00,
2013-06-28 21:10:00,63.1,62.3,29.06,NNW,338,0.0,0.0,97,0.04,,---,1.16,VWS V14.01,2013-06-29 01:10:00,
2013-06-28 21:15:00,63.1,62.3,29.06,WNW,292,0.0,0.0,97,0.04,,---,1.16,VWS V14.01,2013-06-29 01:15:00,
2013-06-28 21:20:00,63.1,62.3,29.06,WNW,292,0.0,0.0,97,0.04,,---,1.16,VWS V14.01,2013-06-29 01:20:00,
2013-06-28 21:26:00,63.1,62.3,29.06,WSW,248,0.0,0.0,97,0.04,,---,1.16,VWS V14.01,2013-06-29 01:26:00,
2013-06-28 21:31:00,63.0,62.1,29.06,WSW,248,0.0,0.0,97,0.04,,---,1.16,VWS V14.01,2013-06-29 01:31:00,
2013-06-28 21:37:00,63.0,62.4,29.06,WSW,248,0.0,0.0,98,0.04,,---,1.16,VWS V14.01,2013-06-29 01:37:00,
2013-06-28 21:42:00,63.0,62.4,29.06,WSW,248,0.0,0.0,98,0.04,,---,1.16,VWS V14.01,2013-06-29 01:42:00,
2013-06-28 21:48:00,63.0,62.4,29.06,WSW,248,0.0,0.0,98,0.04,,---,1.16,VWS V14.01,2013-06-29 01:48:00,
2013-06-28 21:54:00,63.0,62.4,29.09,WSW,248,0.0,0.0,98,0.04,,---,1.16,VWS V14.01,2013-06-29 01:54:00,
2013-06-28 21:59:00,63.0,62.4,29.09,WSW,248,0.0,0.0,98,0.04,,---,1.16,VWS V14.01,2013-06-29 01:59:00,
2013-06-28 22:04:00,63.0,62.4,29.09,WSW,248,0.0,0.0,98,0.04,,---,1.16,VWS V14.01,2013-06-29 02:04:00,
2013-06-28 22:09:00,63.0,62.4,29.09,WSW,248,0.0,0.0,98,0.00,,---,1.16,VWS V14.01,2013-06-29 02:09:00,
2013-06-28 22:15:00,63.0,62.4,29.09,NW,315,0.0,0.0,98,0.00,,---,1.16,VWS V14.01,2013-06-29 02:15:00,
2013-06-28 22:20:00,63.0,62.4,29.09,NW,315,0.0,0.0,98,0.00,,---,1.16,VWS V14.01,2013-06-29 02:20:00,
2013-06-28 22:25:00,63.0,62.4,29.06,NNE,22,0.0,0.0,98,0.00,,---,1.16,VWS V14.01,2013-06-29 02:25:00,
2013-06-28 22:31:00,63.0,62.4,29.06,NNE,22,0.0,0.0,98,0.00,,---,1.16,VWS V14.01,2013-06-29 02:31:00,
2013-06-28 22:37:00,63.0,62.4,29.06,NNE,22,0.0,0.0,98,0.00,,---,1.16,VWS V14.01,2013-06-29 02:37:00,
2013-06-28 22:42:00,62.8,62.2,29.06,NNE,22,0.0,0.0,98,0.00,,---,1.16,VWS V14.01,2013-06-29 02:42:00,
2013-06-28 22:48:00,62.8,62.2,29.06,NNE,22,0.0,0.0,98,0.00,,---,1.16,VWS V14.01,2013-06-29 02:48:00,
2013-06-28 22:53:00,62.8,62.2,29.06,NNE,22,0.0,0.0,98,0.00,,---,1.16,VWS V14.01,2013-06-29 02:53:00,
2013-06-28 22:58:00,62.8,62.2,29.06,NNE,22,0.0,0.0,98,0.00,,---,1.16,VWS V14.01,2013-06-29 02:58:00,
2013-06-28 23:03:00,62.8,62.2,29.06,NNE,22,0.0,0.0,98,0.00,,---,1.16,VWS V14.01,2013-06-29 03:03:00,
2013-06-28 23:09:00,62.8,62.2,29.06,NNE,22,0.0,0.0,98,0.00,,---,1.16,VWS V14.01,2013-06-29 03:09:00,
2013-06-28 23:14:00,62.8,62.2,29.06,NNE,22,0.0,0.0,98,0.00,,---,1.16,VWS V14.01,2013-06-29 03:14:00,
2013-06-28 23:19:00,62.8,62.2,29.06,NNE,22,0.0,0.0,98,0.00,,---,1.16,VWS V14.01,2013-06-29 03:19:00,
2013-06-28 23:24:00,62.8,62.2,29.06,NNE,22,0.0,0.0,98,0.00,,---,1.16,VWS V14.01,2013-06-29 03:24:00,
2013-06-28 23:29:00,62.8,62.2,29.06,NNE,22,0.0,0.0,98,0.00,,---,1.16,VWS V14.01,2013-06-29 03:29:00,
2013-06-28 23:34:00,62.8,62.2,29.06,NNE,22,0.0,0.0,98,0.00,,---,1.16,VWS V14.01,2013-06-29 03:34:00,
2013-06-28 23:40:00,62.8,62.2,29.06,NNE,22,0.0,0.0,98,0.00,,---,1.16,VWS V14.01,2013-06-29 03:40:00,
2013-06-28 23:45:00,62.8,62.2,29.06,NNE,22,0.0,0.0,98,0.00,,---,1.16,VWS V14.01,2013-06-29 03:45:00,
2013-06-28 23:52:00,62.8,62.2,29.09,NNE,22,0.0,0.0,98,0.00,,---,1.16,VWS V14.01,2013-06-29 03:52:00,
2013-06-28 23:58:00,62.8,62.2,29.09,NNE,22,0.0,0.0,98,0.00,,---,1.16,VWS V14.01,2013-06-29 03:58:00,